Weather observations for the past three days for
Lubbock, Lubbock International Airport
Imperial (Metric)
Date Time (cdt) Wind (mph) Vis. (mi.) Weather Sky Cond. Temperature (ºF) Relative Humidity Wind Chill (°F) Heat Index (°F) Pressure Precipitation (in)
Air Dwpt 6 hour altimeter (in) sea level (mb) 1 hr 3 hr 6 hr
Max. Min.
18 09:53 S 25 G 35 10.00 Mostly Cloudy and Breezy BKN025 80.1 66.9 64% 82 29.81 1003.4
18 07:53 S 22 G 39 10.00 Mostly Cloudy and Breezy BKN023 BKN160 75.9 66.9 74% 77 29.8 1002.8
18 06:53 S 21 G 33 10.00 Partly Cloudy and Breezy SCT025 SCT150 75.9 66.9 81 75.9 74% 77 29.77 1001.9
18 05:53 S 23 G 32 10.00 A Few Clouds and Breezy FEW070 77 66.9 71% 79 29.75 1001.1
18 04:53 SE 20 10.00 A Few Clouds FEW250 75.9 64.9 69% 78 29.74 1000.9
18 03:53 S 22 G 32 10.00 A Few Clouds and Breezy FEW250 78.1 63 60% 80 29.73 1000.3
18 02:53 SE 17 10.00 A Few Clouds FEW250 79 63 58% 81 29.74 1000.6
18 01:53 SE 20 G 31 10.00 A Few Clouds FEW250 80.1 64 58% 82 29.74 1000.8
18 00:53 S 22 G 31 10.00 A Few Clouds and Breezy FEW060 FEW250 81 64 95 81 57% 83 29.75 1001.1
17 23:53 S 22 G 28 10.00 Partly Cloudy and Breezy FEW060 FEW120 SCT250 84 63 49% 85 29.75 1001.3
17 22:53 SE 23 G 31 10.00 A Few Clouds and Breezy FEW065 84.9 63 48% 86 29.73 1000.5
17 21:53 SE 21 G 29 10.00 A Few Clouds and Breezy FEW075 FEW130 87.1 63 45% 88 29.7 999.4
17 20:53 SE 26 G 36 10.00 A Few Clouds and Windy FEW060 FEW120 90 62.1 39% 90 29.67 998.7
17 19:53 SE 26 G 33 10.00 A Few Clouds and Windy FEW065 93 63 37% 94 29.67 998.4
17 18:53 S 26 G 39 10.00 A Few Clouds and Windy FEW075 95 61 97 89.1 32% 95 29.66 998.3
17 17:53 S 30 G 40 10.00 A Few Clouds and Windy FEW075 96.1 61 31% 97 29.68 998.7
17 16:53 S 22 G 36 10.00 A Few Clouds and Breezy FEW075 96.1 62.1 32% 97 29.7 999.2
17 15:53 S 23 G 31 10.00 A Few Clouds and Breezy FEW070 95 63 35% 96 29.72 1000.0
17 14:53 S 23 G 32 10.00 Fair and Breezy CLR 93 64 38% 95 29.74 1000.8
17 13:53 S 17 G 30 10.00 Fair CLR 91 64.9 42% 93 29.77 1001.7
17 12:53 S 21 G 31 10.00 Fair and Breezy CLR 88 64.9 88 73 46% 90 29.78 1002.3
17 11:53 S 25 G 33 10.00 Fair and Breezy CLR 86 66 51% 88 29.79 1002.5
17 10:53 S 24 G 38 10.00 Fair and Breezy CLR 82 64.9 56% 84 29.79 1002.9
17 09:53 S 28 G 38 10.00 A Few Clouds and Windy FEW030 80.1 64.9 60% 82 29.81 1003.5
17 08:53 S 29 G 44 10.00 Partly Cloudy and Windy SCT022 77 66 69% 79 29.82 1003.6
17 07:53 S 15 10.00 A Few Clouds FEW030 73.9 64.9 74% 29.82 1003.7
17 06:53 S 15 10.00 A Few Clouds FEW180 73 63 79 73 71% 29.81 1003.4
17 05:53 S 15 10.00 A Few Clouds FEW180 73.9 62.1 67% 29.8 1003.1
17 04:53 S 14 10.00 Fair CLR 75.9 61 60% 78 29.8 1003.0
17 03:53 SE 15 10.00 Fair CLR 75.9 63 64% 78 29.8 1003.0
17 02:53 SE 18 10.00 Fair CLR 78.1 63 60% 80 29.81 1003.3
17 01:53 SE 16 10.00 Fair CLR 78.1 64 62% 80 29.82 1003.8
17 00:53 SE 21 G 29 10.00 Fair and Breezy CLR 79 64.9 93 79 62% 81 29.82 1003.8
16 23:53 SE 21 G 30 10.00 Fair and Breezy CLR 81 64.9 58% 83 29.82 1003.8
16 22:53 SE 17 10.00 Fair CLR 82 64.9 56% 84 29.81 1003.6
16 21:53 SE 17 10.00 A Few Clouds FEW160 84.9 64 50% 86 29.8 1003.1
16 20:53 SE 16 G 26 10.00 A Few Clouds FEW150 88 63 43% 89 29.79 1002.6
16 19:53 SE 21 G 30 10.00 A Few Clouds and Breezy FEW060 91 64 41% 93 29.78 1002.4
16 18:53 SE 21 G 30 10.00 A Few Clouds and Breezy FEW065 93 64.9 95 87.1 40% 95 29.78 1002.2
16 17:53 SE 21 G 31 10.00 A Few Clouds and Breezy FEW070 95 63 35% 96 29.79 1002.6
16 16:53 S 18 G 29 10.00 Fair CLR 95 64 36% 97 29.8 1003.0
16 15:53 S 18 G 28 10.00 Fair CLR 93.9 64.9 38% 96 29.82 1003.6
16 14:53 S 20 G 29 10.00 Fair CLR 91.9 64 40% 94 29.84 1004.5
16 13:53 SE 22 G 28 10.00 Fair and Breezy CLR 90 64.9 44% 92 29.86 1005.2
16 12:53 S 20 G 25 8.00 A Few Clouds FEW050 88 66 88 73.9 48% 90 29.89 1006.1
16 11:53 S 14 G 26 8.00 A Few Clouds FEW044 84 64.9 53% 86 29.9 1006.6
16 10:53 S 17 G 26 10.00 A Few Clouds FEW037 FEW120 FEW260 82 66.9 60% 85 29.9 1006.7
16 09:53 S 21 G 29 10.00 A Few Clouds and Breezy FEW035 FEW120 FEW260 80.1 66 62% 82 29.9 1006.6
16 08:53 S 24 G 31 10.00 A Few Clouds and Breezy FEW110 FEW260 78.1 64 62% 80 29.89 1006.2
16 07:53 SE 12 10.00 Partly Cloudy FEW120 SCT250 75.9 59 56% 78 29.88 1005.8
16 06:53 S 16 10.00 Partly Cloudy FEW120 SCT250 75.9 54 78.1 71.1 47% 78 29.84 1004.6
16 05:53 NW 5 10.00 Mostly Cloudy BKN250 73 57 57% 29.83 1004.1
16 04:53 N 3 10.00 Overcast OVC250 75 61 62% 77 29.82 1003.8
16 03:53 SE 16 10.00 Overcast FEW090 BKN200 OVC250 75.9 62.1 62% 78 29.81 1003.4
16 02:53 SW 15 10.00 Mostly Cloudy FEW090 FEW150 BKN250 75.9 63 64% 78 29.89 1006.1
16 01:53 S 14 G 22 10.00 Partly Cloudy FEW090 SCT150 SCT250 78.1 62.1 58% 80 29.87 1005.3
16 00:53 SE 13 10.00 Partly Cloudy FEW090 SCT250 78.1 63 91 77 60% 80 29.89 1006.3
15 23:53 SE 15 10.00 Partly Cloudy FEW090 SCT250 78.8 62.6 58% 80 29.87 0.0
15 22:53 SE 12 G 17 10.00 Mostly Cloudy SCT160 BKN250 78.8 60.8 54% 80 29.87 0.0
15 21:53 SE 14 G 21 10.00 Mostly Cloudy FEW070 SCT100 BKN160 BKN200 80.6 59 48% 81 29.85 0.0
15 20:53 SE 13 G 17 10.00 Mostly Cloudy FEW035 SCT060 BKN090 BKN160 84.2 60.8 45% 84 29.84 0.0
15 19:53 SE 14 G 20 10.00 Partly Cloudy FEW050 FEW070 SCT110 SCT200 87.8 59 38% 87 29.84 0.0
15 18:53 S 9 10.00 Partly Cloudy SCT085 SCT120 89.6 60.8 38% 90 29.86 0.0
15 17:53 SE 10 G 22 10.00 Mostly Cloudy BKN085 BKN110 91.4 59 34% 91 29.88 0.0
15 16:53 SE 17 10.00 Mostly Cloudy BKN085 BKN110 91 60.1 35% 91 29.88 1006.1
15 15:53 SE 13 G 22 10.00 Partly Cloudy SCT075 SCT200 93 61 34% 93 29.9 1007.0
15 14:53 S 14 G 23 10.00 A Few Clouds FEW060 FEW170 91 59 34% 90 29.92 1007.6
15 13:53 S 15 G 22 10.00 A Few Clouds FEW050 FEW250 90 62.1 39% 90 29.96 1008.5
15 12:53 S 17 10.00 A Few Clouds FEW050 FEW170 87.1 63 88 68 45% 88 29.97 1009.0
15 11:53 S 20 G 26 10.00 A Few Clouds FEW170 84.9 64.9 51% 87 29.98 1009.5
15 10:53 S 16 10.00 A Few Clouds FEW170 81 64 57% 83 29.99 1010.1
Date Time (cdt) Wind (mph) Vis. (mi.) Weather Sky Cond. Air Dwpt Max. Min. Relative Humidity Wind Chill (°F) Heat Index (°F) altimeter (in) sea level (mb) 1 hr 3 hr 6 hr
6 hour
Temperature (ºF) Pressure Precipitation (in)